THORAD AGENA D DEB, 4653

Orbit data source: Space-Track

THORAD AGENA D DEB, 4653 is space debris in SSO originally from a launch on Wed, 08 Apr 1970 UTC launched from the Air Force Western Test Range (AFWTR). Debris objects in space refer to the collection of defunct objects orbiting the Earth. Examples of debris include non-operational satellites, rocket bodies, and fragments generated from explosions, collisions, or faulty payload assembly.

Loading next visibility...
Identifier
4653, 1970-025AM
Orbit
SSO
Country
Flag of USUS
Related business
Manufacturer
Unknown
Mission
Spacecraft
Bus & Motor
Unknown
Mass
Unknown
Launch date (UTC)
1970-04-08 (56 years ago)
Launch vehicle
Unknown
Launch site
Air Force Western Test Range (AFWTR)
Object type
Payload
Rocket body
Debris
Shape & HBR
Unknown shape, 0.1 m
Radar Cross Section
Small (<0.1 m²)

Expand to show TLE details & history
Last TLE update: 19 hours ago

TLE from 19 hours ago
0 THORAD AGENA D DEB
1  4653U 70025AM  25304.67662441  .00020706  00000-0  42698-2 0  9998
2  4653  99.9911 206.7926 0011107 257.8066 102.1884 14.60441038833766
Epoch: 2025-10-31T16:14Z
TLE epoch observation values (Epoch: 2025-10-31T16:14:20.349Z)
Latitude
-0.00004°
Longitude
-77.00982°
Altitude
696.342 km
Speed
7.507 km/s
True Right ascension
13h 47m 10s
True Declination
0° 00' 00"
Sunlit
Object was in daylight at epoch
Visualization orbit readout
Latitude
Unknown
Longitude
Unknown
Altitude
Unknown
Speed
Unknown
Apparent Right ascension
Unknown
Apparent Declination
Unknown
Sunlit
N/A
Visualization observer readout
Local Sidereal Time
07:27:33
Azimuth
Unknown
Elevation
Unknown
Doppler factor
Unknown
Orbital elements
Apogee altitude
696.771 km
Perigee altitude
681.073 km
Semi-major axis
7,067.059 km
Eccentricity
0.00111
Inclination
99.9911°
RAAN
206.7926°
Arg. of periapsis
257.8066°
True anomaly
102.31277°
Mean anomaly
102.1884°
Eccentric anomaly
102.25059°
Mean motion
3.6533 °/min
Orbital period
98.54 mins
BSTAR
0.0042698

Documentation

Showing up to 5 results
|